13/04/2024 13:15:00,0.54
13/04/2024 13:30:00,0.537
13/04/2024 13:45:00,0.536
13/04/2024 14:00:00,0.537
13/04/2024 14:15:00,0.537
13/04/2024 14:30:00,0.541
13/04/2024 14:45:00,0.541
13/04/2024 15:00:00,0.543
13/04/2024 15:15:00,0.543
13/04/2024 15:30:00,0.543
13/04/2024 15:45:00,0.543
13/04/2024 16:00:00,0.541
13/04/2024 16:15:00,0.54
13/04/2024 16:30:00,0.539
13/04/2024 16:45:00,0.539
13/04/2024 17:00:00,0.54
13/04/2024 17:15:00,0.543
13/04/2024 17:30:00,0.547
13/04/2024 17:45:00,0.553
13/04/2024 18:00:00,0.559
13/04/2024 18:15:00,0.559
13/04/2024 18:30:00,0.558
13/04/2024 18:45:00,0.556
13/04/2024 19:00:00,0.557
13/04/2024 19:15:00,0.557
13/04/2024 19:30:00,0.556
13/04/2024 19:45:00,0.551
13/04/2024 20:00:00,0.549
13/04/2024 20:15:00,0.545
13/04/2024 20:30:00,0.543
13/04/2024 20:45:00,0.54
13/04/2024 21:00:00,0.541
13/04/2024 21:15:00,0.543
13/04/2024 21:30:00,0.544
13/04/2024 21:45:00,0.545
13/04/2024 22:00:00,0.544
13/04/2024 22:15:00,0.541
13/04/2024 22:30:00,0.541
13/04/2024 22:45:00,0.537
13/04/2024 23:00:00,0.536
13/04/2024 23:15:00,0.533
13/04/2024 23:30:00,0.532
13/04/2024 23:45:00,0.53
14/04/2024 00:00:00,0.528
14/04/2024 00:15:00,0.527
14/04/2024 00:30:00,0.524
14/04/2024 00:45:00,0.521
14/04/2024 01:00:00,0.521
14/04/2024 01:15:00,0.519
14/04/2024 01:30:00,0.519
14/04/2024 01:45:00,0.521
14/04/2024 02:00:00,0.517
14/04/2024 02:15:00,0.517
14/04/2024 02:30:00,0.517
14/04/2024 02:45:00,0.517
14/04/2024 03:00:00,0.517
14/04/2024 03:15:00,0.517
14/04/2024 03:30:00,0.517
14/04/2024 03:45:00,0.517
14/04/2024 04:00:00,0.516
14/04/2024 04:15:00,0.517
14/04/2024 04:30:00,0.516
14/04/2024 04:45:00,0.517
14/04/2024 05:00:00,0.516
14/04/2024 05:15:00,0.517
14/04/2024 05:30:00,0.517
14/04/2024 05:45:00,0.518
14/04/2024 06:00:00,0.517
14/04/2024 06:15:00,0.517
14/04/2024 06:30:00,0.518
14/04/2024 06:45:00,0.518
14/04/2024 07:00:00,0.518
14/04/2024 07:15:00,0.518
14/04/2024 07:30:00,0.518
14/04/2024 07:45:00,0.519
14/04/2024 08:00:00,0.52
14/04/2024 08:15:00,0.521
14/04/2024 08:30:00,0.523
14/04/2024 08:45:00,0.523
14/04/2024 09:00:00,0.523
14/04/2024 09:15:00,0.523
14/04/2024 09:30:00,0.52
14/04/2024 09:45:00,0.521
14/04/2024 10:00:00,0.523
14/04/2024 10:15:00,0.523
14/04/2024 10:30:00,0.525
14/04/2024 10:45:00,0.526
14/04/2024 11:00:00,0.527
14/04/2024 11:15:00,0.527
14/04/2024 11:30:00,0.529
14/04/2024 11:45:00,0.529
14/04/2024 12:00:00,0.53
14/04/2024 12:15:00,0.531
14/04/2024 12:30:00,0.531
14/04/2024 12:45:00,0.531
14/04/2024 13:00:00,0.53
14/04/2024 13:15:00,0.531
14/04/2024 13:30:00,0.529
14/04/2024 13:45:00,0.531
14/04/2024 14:00:00,0.532
14/04/2024 14:15:00,0.533
14/04/2024 14:30:00,0.535
14/04/2024 14:45:00,0.536
14/04/2024 15:00:00,0.537
14/04/2024 15:15:00,0.537
14/04/2024 15:30:00,0.536
14/04/2024 15:45:00,0.536
14/04/2024 16:00:00,0.537
14/04/2024 16:15:00,0.536
14/04/2024 16:30:00,0.535
14/04/2024 16:45:00,0.535
14/04/2024 17:00:00,0.536
14/04/2024 17:15:00,0.536
14/04/2024 17:30:00,0.536
14/04/2024 17:45:00,0.536
14/04/2024 18:00:00,0.537
14/04/2024 18:15:00,0.536
14/04/2024 18:30:00,0.536
14/04/2024 18:45:00,0.537
14/04/2024 19:00:00,0.537
14/04/2024 19:15:00,0.537
14/04/2024 19:30:00,0.537
14/04/2024 19:45:00,0.538
14/04/2024 20:00:00,0.538
14/04/2024 20:15:00,0.538
14/04/2024 20:30:00,0.537
14/04/2024 20:45:00,0.537
14/04/2024 21:00:00,0.537
14/04/2024 21:15:00,0.537
14/04/2024 21:30:00,0.537
14/04/2024 21:45:00,0.536
14/04/2024 22:00:00,0.536
14/04/2024 22:15:00,0.536
14/04/2024 22:30:00,0.535
14/04/2024 22:45:00,0.534
14/04/2024 23:00:00,0.533
14/04/2024 23:15:00,0.533
14/04/2024 23:30:00,0.533
14/04/2024 23:45:00,0.533
15/04/2024 00:00:00,0.533
15/04/2024 00:15:00,0.533
15/04/2024 00:30:00,0.533
15/04/2024 00:45:00,0.533
15/04/2024 01:00:00,0.533
15/04/2024 01:15:00,0.533
15/04/2024 01:30:00,0.533
15/04/2024 01:45:00,0.533
15/04/2024 02:00:00,0.533
15/04/2024 02:15:00,0.533
15/04/2024 02:30:00,0.533
15/04/2024 02:45:00,0.533
15/04/2024 03:00:00,0.533
15/04/2024 03:15:00,0.534
15/04/2024 03:30:00,0.535
15/04/2024 03:45:00,0.536
15/04/2024 04:00:00,0.537
15/04/2024 04:15:00,0.537
15/04/2024 04:30:00,0.537
15/04/2024 04:45:00,0.537
15/04/2024 05:00:00,0.537
15/04/2024 05:15:00,0.537
15/04/2024 05:30:00,0.537
15/04/2024 05:45:00,0.537
15/04/2024 06:00:00,0.539
15/04/2024 06:15:00,0.539
15/04/2024 06:30:00,0.54
15/04/2024 06:45:00,0.54
15/04/2024 07:00:00,0.541
15/04/2024 07:15:00,0.543
15/04/2024 07:30:00,0.544
15/04/2024 07:45:00,0.545
15/04/2024 08:00:00,0.545
15/04/2024 08:15:00,0.545
15/04/2024 08:30:00,0.544
15/04/2024 08:45:00,0.545
15/04/2024 09:00:00,0.546
15/04/2024 09:15:00,0.547
15/04/2024 09:30:00,0.547
15/04/2024 09:45:00,0.548
15/04/2024 10:00:00,0.547
15/04/2024 10:15:00,0.547
15/04/2024 10:30:00,0.549
15/04/2024 10:45:00,0.549
15/04/2024 11:00:00,0.55
15/04/2024 11:15:00,0.55
15/04/2024 11:30:00,0.551
15/04/2024 11:45:00,0.551
15/04/2024 12:00:00,0.551
15/04/2024 12:15:00,0.553
15/04/2024 12:30:00,0.553
15/04/2024 12:45:00,0.554
15/04/2024 13:00:00,0.553
15/04/2024 13:15:00,0.556
15/04/2024 13:30:00,0.555
15/04/2024 13:45:00,0.554
15/04/2024 14:00:00,0.556
15/04/2024 14:15:00,0.557
15/04/2024 14:30:00,0.556
15/04/2024 14:45:00,0.557
15/04/2024 15:00:00,0.557
15/04/2024 15:15:00,0.559
15/04/2024 15:30:00,0.557
15/04/2024 15:45:00,0.559
15/04/2024 16:00:00,0.559
15/04/2024 16:15:00,0.56
15/04/2024 16:30:00,0.56
15/04/2024 16:45:00,0.56
15/04/2024 17:00:00,0.56
15/04/2024 17:15:00,0.56
15/04/2024 17:30:00,0.561
15/04/2024 17:45:00,0.561
15/04/2024 18:00:00,0.563
15/04/2024 18:15:00,0.563
15/04/2024 18:30:00,0.563
15/04/2024 18:45:00,0.563
15/04/2024 19:00:00,0.563
15/04/2024 19:15:00,0.562
15/04/2024 19:30:00,0.563
15/04/2024 19:45:00,0.563
15/04/2024 20:00:00,0.563
15/04/2024 20:15:00,0.563
15/04/2024 20:30:00,0.564
15/04/2024 20:45:00,0.564
15/04/2024 21:00:00,0.563
15/04/2024 21:15:00,0.563
15/04/2024 21:30:00,0.563
15/04/2024 21:45:00,0.564
15/04/2024 22:00:00,0.564
15/04/2024 22:15:00,0.565
15/04/2024 22:30:00,0.564
15/04/2024 22:45:00,0.564
15/04/2024 23:00:00,0.565
15/04/2024 23:15:00,0.564
15/04/2024 23:30:00,0.565
15/04/2024 23:45:00,0.565
16/04/2024 00:00:00,0.565
16/04/2024 00:15:00,0.565
16/04/2024 00:30:00,0.566
16/04/2024 00:45:00,0.566
16/04/2024 01:00:00,0.567
16/04/2024 01:15:00,0.567
16/04/2024 01:30:00,0.567
16/04/2024 01:45:00,0.566
16/04/2024 02:00:00,0.566
16/04/2024 02:15:00,0.567
16/04/2024 02:30:00,0.567
16/04/2024 02:45:00,0.567
16/04/2024 03:00:00,0.569
16/04/2024 03:15:00,0.569
16/04/2024 03:30:00,0.57
16/04/2024 03:45:00,0.569
16/04/2024 04:00:00,0.57
16/04/2024 04:15:00,0.57
16/04/2024 04:30:00,0.57
16/04/2024 04:45:00,0.57
16/04/2024 05:00:00,0.57
16/04/2024 05:15:00,0.571
16/04/2024 05:30:00,0.573
16/04/2024 05:45:00,0.574
16/04/2024 06:00:00,0.576
16/04/2024 06:15:00,0.579
16/04/2024 06:30:00,0.579
16/04/2024 06:45:00,0.58
16/04/2024 07:00:00,0.583
16/04/2024 07:15:00,0.583
16/04/2024 07:30:00,0.585
16/04/2024 07:45:00,0.586
16/04/2024 08:00:00,0.586
16/04/2024 08:15:00,0.588
16/04/2024 08:30:00,0.589
16/04/2024 08:45:00,0.59
16/04/2024 09:00:00,0.593
16/04/2024 09:15:00,0.593
16/04/2024 09:30:00,0.594
16/04/2024 09:45:00,0.594
16/04/2024 10:00:00,0.595
16/04/2024 10:15:00,0.596
16/04/2024 10:30:00,0.595
16/04/2024 10:45:00,0.596
16/04/2024 11:00:00,0.597
16/04/2024 11:15:00,0.597
16/04/2024 11:30:00,0.597
16/04/2024 11:45:00,0.599
16/04/2024 12:00:00,0.6
16/04/2024 12:15:00,0.599
16/04/2024 12:30:00,0.601
16/04/2024 12:45:00,0.603
16/04/2024 13:00:00,0.601
16/04/2024 13:15:00,0.603
16/04/2024 13:30:00,0.603
16/04/2024 13:45:00,0.603
16/04/2024 14:00:00,0.605
16/04/2024 14:15:00,0.605
16/04/2024 14:30:00,0.603
16/04/2024 14:45:00,0.604
16/04/2024 15:00:00,0.603
16/04/2024 15:15:00,0.605
16/04/2024 15:30:00,0.606
16/04/2024 15:45:00,0.606
16/04/2024 16:00:00,0.607
16/04/2024 16:15:00,0.608
16/04/2024 16:30:00,0.609
16/04/2024 16:45:00,0.61
16/04/2024 17:00:00,0.613
16/04/2024 17:15:00,0.612
16/04/2024 17:30:00,0.613
16/04/2024 17:45:00,0.61
16/04/2024 18:00:00,0.612
16/04/2024 18:15:00,0.613
16/04/2024 18:30:00,0.616
16/04/2024 18:45:00,0.616
16/04/2024 19:00:00,0.616
16/04/2024 19:15:00,0.616
16/04/2024 19:30:00,0.616
16/04/2024 19:45:00,0.616
16/04/2024 20:00:00,0.616
16/04/2024 20:15:00,0.617
16/04/2024 20:30:00,0.618
16/04/2024 20:45:00,0.619
16/04/2024 21:00:00,0.622
16/04/2024 21:15:00,0.624
16/04/2024 21:30:00,0.623
16/04/2024 21:45:00,0.625
16/04/2024 22:00:00,0.623
16/04/2024 22:15:00,0.626
16/04/2024 22:30:00,0.629
16/04/2024 22:45:00,0.63
16/04/2024 23:00:00,0.632
16/04/2024 23:15:00,0.633
16/04/2024 23:30:00,0.635
16/04/2024 23:45:00,0.636
17/04/2024 00:00:00,0.641
17/04/2024 00:15:00,0.642
17/04/2024 00:30:00,0.646
17/04/2024 00:45:00,0.649
17/04/2024 01:00:00,0.653
17/04/2024 01:15:00,0.655
17/04/2024 01:30:00,0.658
17/04/2024 01:45:00,0.662
17/04/2024 02:00:00,0.666
17/04/2024 02:15:00,0.67
17/04/2024 02:30:00,0.673
17/04/2024 02:45:00,0.677
17/04/2024 03:00:00,0.678
17/04/2024 03:15:00,0.682
17/04/2024 03:30:00,0.684
17/04/2024 03:45:00,0.687
17/04/2024 04:00:00,0.688
17/04/2024 04:15:00,0.691
17/04/2024 04:30:00,0.691
17/04/2024 04:45:00,0.692
17/04/2024 05:00:00,0.692
17/04/2024 05:15:00,0.695
17/04/2024 05:30:00,0.696
17/04/2024 05:45:00,0.697
17/04/2024 06:00:00,0.698
17/04/2024 06:15:00,0.699
17/04/2024 06:30:00,0.701
17/04/2024 06:45:00,0.704
17/04/2024 07:00:00,0.705
17/04/2024 07:15:00,0.709
17/04/2024 07:30:00,0.71
17/04/2024 07:45:00,0.713
17/04/2024 08:00:00,0.717
17/04/2024 08:15:00,0.72
17/04/2024 08:30:00,0.723
17/04/2024 08:45:00,0.727
17/04/2024 09:00:00,0.73
17/04/2024 09:15:00,0.733
17/04/2024 09:30:00,0.737
17/04/2024 09:45:00,0.739
17/04/2024 10:00:00,0.744
17/04/2024 10:15:00,0.748
17/04/2024 10:30:00,0.753
17/04/2024 10:45:00,0.757
17/04/2024 11:00:00,0.761
17/04/2024 11:15:00,0.766
17/04/2024 11:30:00,0.77
17/04/2024 11:45:00,0.773
17/04/2024 12:00:00,0.776
17/04/2024 12:15:00,0.777
17/04/2024 12:30:00,0.78
17/04/2024 12:45:00,0.78
17/04/2024 13:00:00,0.781
17/04/2024 13:15:00,0.781
17/04/2024 13:30:00,0.784
17/04/2024 13:45:00,0.784
17/04/2024 14:00:00,0.786
17/04/2024 14:15:00,0.787
17/04/2024 14:30:00,0.787
17/04/2024 14:45:00,0.787
17/04/2024 15:00:00,0.787
17/04/2024 15:15:00,0.786
17/04/2024 15:30:00,0.784
17/04/2024 15:45:00,0.783
17/04/2024 16:00:00,0.783
17/04/2024 16:15:00,0.781
17/04/2024 16:30:00,0.78
17/04/2024 16:45:00,0.778
17/04/2024 17:00:00,0.778
17/04/2024 17:15:00,0.777
17/04/2024 17:30:00,0.775
17/04/2024 17:45:00,0.774
17/04/2024 18:00:00,0.771
17/04/2024 18:15:00,0.769
17/04/2024 18:30:00,0.768
17/04/2024 18:45:00,0.767
17/04/2024 19:00:00,0.765
17/04/2024 19:15:00,0.764
17/04/2024 19:30:00,0.761
17/04/2024 19:45:00,0.76
17/04/2024 20:00:00,0.758
17/04/2024 20:15:00,0.754
17/04/2024 20:30:00,0.754
17/04/2024 20:45:00,0.753
17/04/2024 21:00:00,0.749
17/04/2024 21:15:00,0.748
17/04/2024 21:30:00,0.745
17/04/2024 21:45:00,0.744
17/04/2024 22:00:00,0.741
17/04/2024 22:15:00,0.74
17/04/2024 22:30:00,0.738
17/04/2024 22:45:00,0.735
17/04/2024 23:00:00,0.734
17/04/2024 23:15:00,0.731
17/04/2024 23:30:00,0.73
17/04/2024 23:45:00,0.728
18/04/2024 00:00:00,0.728
18/04/2024 00:15:00,0.725
18/04/2024 00:30:00,0.724
18/04/2024 00:45:00,0.721
18/04/2024 01:00:00,0.721
18/04/2024 01:15:00,0.719
18/04/2024 01:30:00,0.717
18/04/2024 01:45:00,0.715
18/04/2024 02:00:00,0.714
18/04/2024 02:15:00,0.712
18/04/2024 02:30:00,0.711
18/04/2024 02:45:00,0.71
18/04/2024 03:00:00,0.708
18/04/2024 03:15:00,0.707
18/04/2024 03:30:00,0.706
18/04/2024 03:45:00,0.704
18/04/2024 04:00:00,0.701
18/04/2024 04:15:00,0.701
18/04/2024 04:30:00,0.699
18/04/2024 04:45:00,0.698
18/04/2024 05:00:00,0.697
18/04/2024 05:15:00,0.695
18/04/2024 05:30:00,0.695
18/04/2024 05:45:00,0.692
18/04/2024 06:00:00,0.691
18/04/2024 06:15:00,0.691
18/04/2024 06:30:00,0.691
18/04/2024 06:45:00,0.688
18/04/2024 07:00:00,0.688
18/04/2024 07:15:00,0.687
18/04/2024 07:30:00,0.685
18/04/2024 07:45:00,0.686
18/04/2024 08:00:00,0.687
18/04/2024 08:15:00,0.687
18/04/2024 08:30:00,0.687
18/04/2024 08:45:00,0.685
18/04/2024 09:00:00,0.685
18/04/2024 09:15:00,0.685
18/04/2024 09:30:00,0.685
18/04/2024 09:45:00,0.684
18/04/2024 10:00:00,0.685
18/04/2024 10:15:00,0.685
18/04/2024 10:30:00,0.684
18/04/2024 10:45:00,0.687
18/04/2024 11:00:00,0.687
18/04/2024 11:15:00,0.687
18/04/2024 11:30:00,0.689
18/04/2024 11:45:00,0.689
18/04/2024 12:00:00,0.687
18/04/2024 12:15:00,0.687
18/04/2024 12:30:00,0.688
18/04/2024 12:45:00,0.688
